ARIANE 5 DEB (SYLDA), 26722

Orbit data source: Space-Track

ARIANE 5 DEB (SYLDA), 26722 is space debris in HEO originally from a launch on Thu, 08 Mar 2001 UTC launched from the French Guiana (FRGUI). Debris objects in space refer to the collection of defunct objects orbiting the Earth. Examples of debris include non-operational satellites, rocket bodies, and fragments generated from explosions, collisions, or faulty payload assembly.

Loading next visibility...
Identifier
26722, 2001-011D
Orbit
HEO
Country
Flag of FRFR
Related business
Manufacturer
Astrium
Mission
Spacecraft
Bus & Motor
SYLDA 5, Unknown motor
Mass
440 kg wet, 440 kg dry
Launch date (UTC)
2001-03-08 (25 years ago)
Launch vehicle
Unknown
Launch site
French Guiana (FRGUI)
Object type
Payload
Rocket body
Debris
Shape & HBR
Cyl, 2.5 m
Radar Cross Section
25.270 m², Large (>1 m²)

Expand to show TLE details & history
Last TLE update: 18 hours ago

TLE from 18 hours ago
0 ARIANE 5 DEB (SYLDA)
1 26722U 01011D   26094.74238650  .00000074  00000-0  94137-2 0  9995
2 26722   2.4381 338.4108 7076275  98.9484 339.6294  2.22959501204278
Epoch: 2026-04-04T17:49Z
TLE epoch observation values (Epoch: 2026-04-04T17:49:02.193Z)
Latitude
0.00008°
Longitude
-122.60783°
Altitude
7,646.113 km
Speed
6.382 km/s
True Right ascension
22h 30m 50s
True Declination
0° 00' 00"
Sunlit
Object was in daylight at epoch
Visualization orbit readout
Latitude
Unknown
Longitude
Unknown
Altitude
Unknown
Speed
Unknown
Apparent Right ascension
Unknown
Apparent Declination
Unknown
Sunlit
N/A
Visualization observer readout
Local Sidereal Time
17:26:19
Azimuth
Unknown
Elevation
Unknown
Doppler factor
Unknown
Orbital elements
Apogee altitude
35,895.167 km
Perigee altitude
859.713 km
Semi-major axis
24,755.577 km
Eccentricity
0.70763
Inclination
2.4381°
RAAN
338.4108°
Arg. of periapsis
98.9484°
True anomaly
259.91858°
Mean anomaly
339.6294°
Eccentric anomaly
307.43614°
Mean motion
0.55723 °/min
Orbital period
646.05 mins
BSTAR
0.0094137
Loading maneuver chart data...
Computing Atmospheric mass density...
Loading historical data...
Loading historical data...
Loading historical data...
Loading historical data...
Loading historical data...
Loading historical data...
Loading historical data...
Other satellites on launch #11 in the year 2001 (2001-03-08 UTC)

Documentation

Showing up to 5 results
|